Terug naar catalogus

SL-12 DEB

LostHEO
NORAD 44872·DEBRIS·🇷🇺 Russia

Gelanceerd Sep 2, 2010 vanaf Baikonur Cosmodrome

Loading…

Volgende Passages (komende 24 uur)

TLE

VerouderdSource: Space-Track

Epoch: Mar 26, 2022, 10:19 UTC

1 44872U 10041AM  22085.43053852  .00170694  00000-0  10198-1 0  9995
2 44872  64.6273 249.1655 5365435 355.1234   1.2076  5.08854629 42280

Volg SL-12 DEB in realtime met AllMySat

Download on the App Store